Date String (YYYY-MM-DD hh:mm:ss) UTC,Instrument flags,Ambient pressure (hPa),Sample flow (lpm),Bypass flow (lpm),Sample temperature (°C),Ambient temperature (°C),ASC tube jacket temperature (°C),LED temperature (°C),Box temperature (°C),Sample RH (%),Span deviation,Mass concentration (μg/m³),Mass concentration (μg/m³),Mass concentration (μg/m³)
DateTimeUTC,F1_M11,P_M11,Q1_M11,Q2_M11,T1_M11,T2_M11,T3_M11,T4_M11,T5_M11,U1_M11,ZSPAN_M11,X0_M11,X2_M11,X1_M11
2022-03-03 13:00:00,,0827.7,5.01,0.00,26.2,25.5,00.0,35.3,28.0,09.8,0000.0,0005.23,0002.01,0001.66
2022-03-03 13:01:00,,0827.7,4.98,0.00,26.2,25.5,00.0,35.3,28.0,09.7,0000.0,0006.20,0002.00,0001.65
2022-03-03 13:02:00,,0827.8,5.02,0.00,26.2,25.5,00.0,35.3,28.0,09.7,0000.0,0005.95,0002.05,0001.69
2022-03-03 13:03:00,,0827.7,5.00,0.00,26.2,25.4,00.0,35.3,28.0,09.6,0000.0,0006.38,0002.07,0001.71
2022-03-03 13:04:00,,0827.8,5.00,0.00,26.2,25.4,00.0,35.3,28.0,09.4,0000.0,0007.45,0002.11,0001.71
2022-03-03 13:05:00,,0827.7,4.99,0.00,26.2,25.4,00.0,35.3,28.0,09.3,0000.0,0007.38,0002.14,0001.71
2022-03-03 13:06:00,,0827.7,5.01,0.00,26.2,25.4,00.0,35.3,28.0,09.3,0000.0,0007.55,0002.13,0001.70
2022-03-03 13:07:00,,0827.7,4.98,0.00,26.2,25.4,00.0,35.2,28.0,09.3,0000.0,0007.61,0002.05,0001.65
2022-03-03 13:08:00,,0827.7,5.01,0.00,26.2,25.4,00.0,35.2,28.0,09.4,0000.0,0007.66,0002.01,0001.61
2022-03-03 13:09:00,,0827.7,5.00,0.00,26.2,25.4,00.0,35.2,28.0,09.4,0000.0,0007.71,0002.00,0001.59
2022-03-03 13:10:00,,0827.8,5.01,0.00,26.2,25.4,00.0,35.2,28.0,09.4,0000.0,0007.00,0002.03,0001.59
2022-03-03 13:11:00,,0827.8,4.99,0.00,26.2,25.4,00.0,35.2,28.0,09.5,0000.0,0007.00,0002.04,0001.59
2022-03-03 13:12:00,,0827.8,5.00,0.00,26.2,25.4,00.0,35.2,28.0,09.3,0000.0,0006.42,0002.01,0001.56
2022-03-03 13:13:00,,0827.8,5.00,0.00,26.2,25.4,00.0,35.2,27.9,09.1,0000.0,0006.48,0001.93,0001.49
2022-03-03 13:14:00,,0827.8,5.00,0.00,26.2,25.4,00.0,35.2,28.0,09.0,0000.0,0006.07,0001.89,0001.44
2022-03-03 13:15:00,,0827.8,5.00,0.00,26.1,25.4,00.0,35.2,27.9,09.0,0000.0,0004.54,0001.81,0001.38
2022-03-03 13:16:00,,0827.8,5.00,0.00,26.1,25.4,00.0,35.2,27.9,09.0,0000.0,0004.38,0001.75,0001.36
2022-03-03 13:17:00,,0827.8,5.01,0.00,26.1,25.4,00.0,35.2,27.9,08.9,0000.0,0004.10,0001.74,0001.34
2022-03-03 13:18:00,,0827.8,4.99,0.00,26.1,25.4,00.0,35.2,27.9,08.9,0000.0,0004.44,0001.70,0001.32
2022-03-03 13:19:00,,0827.8,5.01,0.00,26.1,25.3,00.0,35.2,27.9,08.8,0000.0,0004.73,0001.68,0001.29
2022-03-03 13:20:00,,0827.8,4.98,0.00,26.1,25.3,00.0,35.2,27.9,08.8,0000.0,0004.59,0001.61,0001.25
2022-03-03 13:21:00,,0827.8,5.01,0.00,26.1,25.3,00.0,35.2,27.9,08.8,0000.0,0004.39,0001.54,0001.21
2022-03-03 13:22:00,,0827.8,5.00,0.00,26.1,25.3,00.0,35.1,27.9,08.7,0000.0,0004.96,0001.48,0001.16
2022-03-03 13:23:00,,0827.7,4.99,0.00,26.1,25.3,00.0,35.1,27.9,08.8,0000.0,0006.21,0001.45,0001.13
2022-03-03 13:24:00,,0827.8,5.01,0.00,26.1,25.3,00.0,35.1,27.8,08.8,0000.0,0005.25,0001.39,0001.09
2022-03-03 13:25:00,,0827.7,5.00,0.00,26.1,25.3,00.0,35.1,27.8,08.9,0000.0,0005.05,0001.31,0001.04
2022-03-03 13:26:00,,0827.7,4.99,0.00,26.1,25.3,00.0,35.1,27.9,09.0,0000.0,0005.84,0001.28,0001.03
2022-03-03 13:27:00,,0827.7,5.00,0.00,26.1,25.3,00.0,35.1,27.9,08.8,0000.0,0005.94,0001.25,0000.99
2022-03-03 13:28:00,,0827.7,5.00,0.00,26.1,25.3,00.0,35.1,27.9,08.6,0000.0,0005.84,0001.15,0000.93
2022-03-03 13:29:00,,0827.7,4.98,0.00,26.0,25.3,00.0,35.1,27.8,08.6,0000.0,0005.50,0001.08,0000.88
2022-03-03 13:30:00,,0827.7,5.00,0.00,26.0,25.3,00.0,35.1,27.8,08.6,0000.0,0004.64,0001.02,0000.82
2022-03-03 13:31:00,,0827.7,5.01,0.00,26.0,25.3,00.0,35.1,27.8,08.7,0000.0,0004.51,0000.98,0000.78
2022-03-03 13:32:00,,0827.7,5.00,0.00,26.0,25.2,00.0,35.1,27.8,08.6,0000.0,0004.39,0000.92,0000.72
2022-03-03 13:33:00,,0827.7,5.00,0.00,26.0,25.3,00.0,35.1,27.8,08.7,0000.0,0004.38,0000.89,0000.69
2022-03-03 13:34:00,,0827.7,5.01,0.00,26.0,25.3,00.0,35.1,27.8,08.9,0000.0,0002.50,0000.89,0000.69
2022-03-03 13:35:00,,0827.7,5.01,0.00,26.0,25.3,00.0,35.1,27.8,09.0,0000.0,0002.50,0000.90,0000.70
2022-03-03 13:36:00,,0827.7,4.98,0.00,26.0,25.3,00.0,35.1,27.8,09.1,0000.0,0002.59,0000.94,0000.72
2022-03-03 13:37:00,,0827.7,5.01,0.00,26.0,25.3,00.0,35.1,27.8,09.1,0000.0,0001.67,0000.95,0000.72
2022-03-03 13:38:00,,0827.7,5.01,0.00,26.0,25.2,00.0,35.1,27.8,09.1,0000.0,0001.62,0000.97,0000.73
2022-03-03 13:39:00,,0827.7,4.98,0.00,26.0,25.2,00.0,35.0,27.8,09.0,0000.0,0001.65,0001.00,0000.75
2022-03-03 13:40:00,,0827.7,5.01,0.00,26.0,25.2,00.0,35.0,27.8,08.8,0000.0,0001.71,0001.04,0000.75
2022-03-03 13:41:00,,0827.7,5.01,0.00,26.0,25.2,00.0,35.0,27.8,08.8,0000.0,0001.56,0001.02,0000.75
2022-03-03 13:42:00,,0827.7,4.98,0.00,26.0,25.2,00.0,35.0,27.8,08.9,0000.0,0001.58,0001.01,0000.76
2022-03-03 13:43:00,,0827.7,5.00,0.00,26.0,25.2,00.0,35.0,27.8,08.9,0000.0,0001.88,0001.05,0000.76
2022-03-03 13:44:00,,0827.7,5.01,0.00,26.0,25.2,00.0,35.0,27.8,09.0,0000.0,0001.91,0001.04,0000.76
2022-03-03 13:45:00,,0827.7,4.98,0.00,26.0,25.2,00.0,35.0,27.8,09.2,0000.0,0001.91,0001.03,0000.76
2022-03-03 13:46:00,,0827.7,5.01,0.00,26.0,25.2,00.0,35.0,27.8,09.3,0000.0,0001.90,0001.02,0000.76
2022-03-03 13:47:00,,0827.7,5.00,0.00,26.0,25.2,00.0,35.0,27.8,09.1,0000.0,0001.90,0001.04,0000.77
2022-03-03 13:48:00,,0827.7,5.00,0.00,26.0,25.2,00.0,35.0,27.8,09.0,0000.0,0002.02,0001.09,0000.78
2022-03-03 13:49:00,,0827.7,4.99,0.00,26.0,25.2,00.0,35.0,27.8,09.1,0000.0,0002.00,0001.09,0000.78
2022-03-03 13:50:00,,0827.6,4.99,0.00,26.0,25.2,00.0,35.0,27.8,09.1,0000.0,0001.94,0001.09,0000.80
2022-03-03 13:51:00,,0827.6,5.01,0.00,26.0,25.2,00.0,35.0,27.7,08.8,0000.0,0001.97,0001.10,0000.82
2022-03-03 13:52:00,,0827.6,5.00,0.00,26.0,25.2,00.0,35.0,27.7,08.8,0000.0,0002.10,0001.13,0000.83
2022-03-03 13:53:00,,0827.6,5.00,0.00,26.0,25.2,00.0,35.0,27.7,08.7,0000.0,0002.20,0001.13,0000.84
2022-03-03 13:54:00,,0827.7,4.98,0.00,26.0,25.2,00.0,35.0,27.7,08.5,0000.0,0001.97,0001.12,0000.85
2022-03-03 13:55:00,,0827.7,5.01,0.00,25.9,25.1,00.0,35.0,27.7,08.6,0000.0,0001.92,0001.14,0000.86
2022-03-03 13:56:00,,0827.7,5.00,0.00,25.9,25.1,00.0,35.0,27.7,08.7,0000.0,0001.93,0001.15,0000.86
2022-03-03 13:57:00,,0827.6,5.00,0.00,25.9,25.1,00.0,35.0,27.7,08.7,0000.0,0001.99,0001.18,0000.87
2022-03-03 13:58:00,,0827.7,4.99,0.00,25.9,25.1,00.0,35.0,27.7,08.8,0000.0,0001.93,0001.15,0000.87
2022-03-03 13:59:00,,0827.7,5.01,0.00,25.9,25.1,00.0,35.0,27.7,08.9,0000.0,0001.80,0001.12,0000.88
